TimeCDT,TemperatureF,Dew PointF,Humidity,Sea Level PressureIn,VisibilityMPH,Wind Direction,Wind SpeedMPH,Gust SpeedMPH,PrecipitationIn,Events,Conditions,WindDirDegrees,DateUTC
12:56 AM,62.1,55.9,80,29.90,10.0,South,6.9,-,N/A,,Partly Cloudy,180,2013-03-18 05:56:00
1:56 AM,62.1,57.0,84,29.89,10.0,SSE,6.9,-,N/A,,Mostly Cloudy,160,2013-03-18 06:56:00
2:56 AM,62.1,57.0,84,29.89,10.0,South,5.8,-,N/A,,Overcast,170,2013-03-18 07:56:00
3:56 AM,62.1,57.0,84,29.88,10.0,South,5.8,-,N/A,,Overcast,170,2013-03-18 08:56:00
4:39 AM,62.6,57.2,82,29.85,10.0,South,4.6,-,N/A,,Mostly Cloudy,170,2013-03-18 09:39:00
4:56 AM,62.1,57.0,84,29.87,10.0,SSE,8.1,-,N/A,,Mostly Cloudy,150,2013-03-18 09:56:00
5:12 AM,62.6,57.2,82,29.85,10.0,South,4.6,-,N/A,,Overcast,170,2013-03-18 10:12:00
5:49 AM,62.6,57.2,82,29.86,10.0,SSE,5.8,-,N/A,,Overcast,160,2013-03-18 10:49:00
5:56 AM,62.1,57.9,86,29.89,10.0,South,5.8,-,N/A,,Overcast,170,2013-03-18 10:56:00
6:56 AM,62.1,57.9,86,29.89,10.0,SSE,5.8,-,N/A,,Overcast,150,2013-03-18 11:56:00
7:05 AM,62.6,57.2,82,29.86,10.0,SSE,5.8,-,N/A,,Overcast,150,2013-03-18 12:05:00
7:56 AM,63.0,59.0,87,29.90,10.0,South,6.9,-,N/A,,Overcast,170,2013-03-18 12:56:00
8:56 AM,64.0,59.0,84,29.90,10.0,South,8.1,-,N/A,,Overcast,170,2013-03-18 13:56:00
9:56 AM,66.0,60.1,81,29.91,9.0,Variable,4.6,-,N/A,,Overcast,0,2013-03-18 14:56:00
10:56 AM,68.0,62.1,81,29.90,9.0,SSW,9.2,-,N/A,,Overcast,200,2013-03-18 15:56:00
11:22 AM,69.8,62.6,78,29.86,9.0,South,9.2,19.6,N/A,,Overcast,190,2013-03-18 16:22:00
11:56 AM,71.1,62.1,73,29.88,10.0,SSW,9.2,18.4,N/A,,Overcast,200,2013-03-18 16:56:00
12:37 PM,73.4,62.6,69,29.83,10.0,SSW,9.2,-,N/A,,Overcast,210,2013-03-18 17:37:00
12:56 PM,73.9,63.0,68,29.85,10.0,SSW,8.1,16.1,N/A,,Overcast,200,2013-03-18 17:56:00
1:52 PM,77.0,60.8,57,29.81,10.0,SW,11.5,18.4,N/A,,Overcast,230,2013-03-18 18:52:00
1:56 PM,78.1,61.0,56,29.83,10.0,SW,11.5,18.4,N/A,,Overcast,230,2013-03-18 18:56:00
2:56 PM,80.1,60.1,50,29.80,10.0,SW,9.2,-,N/A,,Mostly Cloudy,220,2013-03-18 19:56:00
3:56 PM,73.9,54.0,50,29.83,10.0,North,27.6,34.5,N/A,Thunderstorm,Thunderstorm,350,2013-03-18 20:56:00
4:11 PM,64.4,53.6,68,29.82,2.0,NNE,11.5,29.9,0.05,Rain-Hail-Thunderstorm,Heavy Thunderstorms and Rain,20,2013-03-18 21:11:00
4:22 PM,59.0,55.4,88,29.84,7.0,NNE,8.1,16.1,0.26,Thunderstorm,Thunderstorm,30,2013-03-18 21:22:00
4:56 PM,57.9,55.0,90,29.86,10.0,East,8.1,-,0.28,Rain-Thunderstorm,Light Thunderstorms and Rain,100,2013-03-18 21:56:00
5:56 PM,57.9,55.0,90,29.81,10.0,South,13.8,27.6,0.03,Rain,Light Rain,180,2013-03-18 22:56:00
6:29 PM,60.8,55.4,82,29.76,10.0,SW,3.5,-,0.00,,Mostly Cloudy,220,2013-03-18 23:29:00
6:54 PM,60.8,55.4,82,29.79,10.0,NNE,11.5,-,0.00,,Mostly Cloudy,20,2013-03-18 23:54:00
6:56 PM,60.1,55.0,83,29.82,10.0,NNE,8.1,-,0.00,,Mostly Cloudy,20,2013-03-18 23:56:00
7:56 PM,60.1,55.0,83,29.85,10.0,NNW,6.9,-,N/A,,Mostly Cloudy,340,2013-03-19 00:56:00
8:06 PM,59.0,55.4,88,29.85,10.0,WNW,6.9,-,N/A,Thunderstorm,Thunderstorm,290,2013-03-19 01:06:00
8:11 PM,59.0,55.4,88,29.83,4.0,Variable,3.5,-,0.00,Rain-Thunderstorm,Thunderstorms and Rain,0,2013-03-19 01:11:00
8:48 PM,57.2,55.4,94,29.86,10.0,WSW,3.5,-,0.02,,Mostly Cloudy,250,2013-03-19 01:48:00
8:56 PM,57.9,55.0,90,29.89,10.0,SW,3.5,-,0.02,,Mostly Cloudy,230,2013-03-19 01:56:00
9:56 PM,57.9,55.0,90,29.94,10.0,SW,3.5,-,N/A,,Mostly Cloudy,220,2013-03-19 02:56:00
10:49 PM,59.0,55.4,88,29.96,5.0,Variable,6.9,-,0.00,Rain-Thunderstorm,Thunderstorms and Rain,0,2013-03-19 03:49:00
10:56 PM,59.0,55.0,87,29.99,5.0,SSW,5.8,-,0.00,Rain-Thunderstorm,Light Thunderstorms and Rain,210,2013-03-19 03:56:00
11:19 PM,57.2,53.6,88,29.95,10.0,NNW,8.1,-,0.00,,Mostly Cloudy,340,2013-03-19 04:19:00
11:56 PM,57.0,52.0,83,29.99,10.0,NNW,8.1,-,0.00,,Mostly Cloudy,330,2013-03-19 04:56:00